Weather History for Valdosta Regional, GA

Change the Weather History Date:

Wednesday, February 13, 2013

  Actual Average Record
Temperature  
Mean Temperature 68 °F 54 °F  
Max Temperature 83 °F 66 °F 57 °F (2014)
Min Temperature 53 °F 41 °F 37 °F (2014)
Degree Days  
Heating Degree Days 0 11  
Month to date heating degree days 84 164  
Since 1 July heating degree days 713 1233  
Cooling Degree Days 2    
Growing Degree Days 17 (Base 50)    
Moisture  
Dew Point 57 °F    
Average Humidity 59    
Maximum Humidity 84    
Minimum Humidity 33    
Precipitation  
Precipitation T in - 0.00 in (2014)
Month to date precipitation 0.49  
Year to date precipitation 1.25  
Sea Level Pressure  
Sea Level Pressure 29.88 in    
Wind  
Wind Speed 6 mph (WSW)    
Max Wind Speed 13 mph    
Max Gust Speed 28 mph    
Visibility 10 miles    
Events Rain    
T = Trace of Precipitation, MM = Missing Value Source: NWS Daily Summary

Daily Weather History Graph

Daily Weather History Graph

Search for Another Location

Airport:

Trip Planner

Search our weather history database for the weather conditions in past years. The results will help you decide how hot, cold, wet, or windy it might be!

Date:

Astronomy

Feb. 13, 2013 Rise Set
Actual Time 7:15 AM EST 6:19 PM EST
Civil Twilight 6:50 AM EST 6:44 PM EST
Nautical Twilight 6:22 AM EST 7:12 PM EST
Astronomical Twilight 5:54 AM EST 7:40 PM EST
Moon 9:02 AM EST (2/13) 10:00 PM EST (2/13)
Length of Visible Light 11h 53m
Length of Day
11h 04m
Waxing Crescent, 13% of the Moon is Illuminated
Feb 13
Waxing Crescent
Feb 17
First Quarter
Feb 25
Full
Mar 4
Last Quarter
Mar 11
New

Hourly Weather History & Observations

Time (EST) Temp. Heat Index Dew Point Humidity Pressure Visibility Wind Dir Wind Speed Gust Speed Precip Events Conditions
12:53 AM 73.0 °F - 68.0 °F 84% 29.84 in 10.0 mi SSW 8.1 mph - N/A   Overcast
1:29 AM 73.4 °F - 68.0 °F 83% 29.82 in 10.0 mi SSW 6.9 mph - N/A   Mostly Cloudy
1:53 AM 73.0 °F - 66.9 °F 81% 29.83 in 10.0 mi Variable 5.8 mph - N/A   Overcast
2:01 AM 73.4 °F - 66.2 °F 78% 29.81 in 10.0 mi SW 11.5 mph 21.9 mph N/A   Overcast
2:39 AM 73.4 °F - 66.2 °F 78% 29.81 in 10.0 mi SW 9.2 mph 21.9 mph N/A   Overcast
2:53 AM 73.9 °F - 66.9 °F 79% 29.83 in 10.0 mi Variable 6.9 mph 20.7 mph N/A   Overcast
3:53 AM 75.0 °F - 66.9 °F 76% 29.81 in 10.0 mi SW 8.1 mph 18.4 mph N/A   Overcast
4:53 AM 75.0 °F - 66.9 °F 76% 29.81 in 10.0 mi SW 12.7 mph 26.5 mph N/A   Overcast
5:53 AM 75.0 °F - 66.9 °F 76% 29.81 in 10.0 mi Variable 6.9 mph 18.4 mph N/A   Overcast
6:53 AM 75.0 °F - 66.9 °F 76% 29.83 in 10.0 mi Variable 5.8 mph - N/A   Overcast
7:53 AM 75.0 °F - 68.0 °F 79% 29.86 in 10.0 mi Variable 3.5 mph - N/A   Overcast
8:21 AM 75.2 °F - 66.2 °F 73% 29.84 in 10.0 mi Variable 6.9 mph - N/A   Overcast
8:53 AM 75.0 °F - 66.9 °F 76% 29.87 in 10.0 mi Variable 3.5 mph - N/A   Scattered Clouds
9:22 AM 75.2 °F - 66.2 °F 73% 29.86 in 10.0 mi Variable 4.6 mph - N/A   Mostly Cloudy
9:53 AM 75.9 °F - 66.9 °F 74% 29.88 in 10.0 mi Variable 5.8 mph - N/A   Mostly Cloudy
10:01 AM 78.8 °F - 66.2 °F 65% 29.87 in 10.0 mi West 8.1 mph - N/A   Scattered Clouds
10:22 AM 80.6 °F 82.3 °F 64.4 °F 58% 29.87 in 10.0 mi West 8.1 mph 19.6 mph N/A   Mostly Cloudy
10:53 AM 79.0 °F - 62.1 °F 56% 29.89 in 10.0 mi Variable 5.8 mph - N/A   Mostly Cloudy
11:00 AM 80.6 °F 81.8 °F 62.6 °F 54% 29.87 in 10.0 mi West 8.1 mph - N/A   Scattered Clouds
11:53 AM 81.0 °F 81.3 °F 59.0 °F 47% 29.87 in 10.0 mi WSW 8.1 mph 17.3 mph N/A   Scattered Clouds
12:53 PM 79.0 °F - 57.0 °F 47% 29.86 in 10.0 mi Variable 6.9 mph - N/A   Mostly Cloudy
1:53 PM 77.0 °F - 55.9 °F 48% 29.82 in 10.0 mi Variable 3.5 mph - N/A   Mostly Cloudy
2:53 PM 77.0 °F - 48.9 °F 37% 29.85 in 10.0 mi Variable 5.8 mph - N/A   Mostly Cloudy
3:53 PM 73.0 °F - 43.0 °F 34% 29.88 in 10.0 mi Variable 3.5 mph - N/A   Mostly Cloudy
4:53 PM 71.1 °F - 41.0 °F 34% 29.90 in 10.0 mi Variable 6.9 mph 18.4 mph N/A   Overcast
5:53 PM 68.0 °F - 42.1 °F 39% 29.91 in 10.0 mi Variable 6.9 mph - N/A   Overcast
6:53 PM 66.9 °F - 44.1 °F 44% 29.91 in 10.0 mi Variable 4.6 mph - N/A   Overcast
7:53 PM 66.0 °F - 44.1 °F 45% 29.93 in 10.0 mi Calm Calm - N/A   Overcast
8:53 PM 63.0 °F - 46.9 °F 56% 29.96 in 10.0 mi Variable 6.9 mph - N/A   Overcast
9:44 PM 57.2 °F - 48.2 °F 72% 29.94 in 10.0 mi Variable 5.8 mph - 0.00 in   Overcast
9:53 PM 57.9 °F - 48.9 °F 72% 29.99 in 10.0 mi Variable 5.8 mph - 0.00 in   Overcast
10:20 PM 55.4 °F - 46.4 °F 72% 29.98 in 10.0 mi NW 6.9 mph - N/A   Overcast
10:34 PM 55.4 °F - 42.8 °F 63% 29.98 in 10.0 mi Variable 4.6 mph - N/A   Overcast
10:53 PM 54.0 °F - 43.0 °F 66% 30.02 in 10.0 mi WNW 5.8 mph - 0.00 in Rain Light Rain
11:38 PM 53.6 °F - 42.8 °F 67% 29.97 in 10.0 mi Calm Calm - 0.00 in Rain Light Rain
11:53 PM 53.1 °F - 44.1 °F 71% 29.99 in 10.0 mi Calm Calm - 0.00 in Rain Light Rain